EW8697 Weather Reports


time (UTC)temp
F
wind
direction
speed
knots
gust
knots
rain 1hr
in
rain 24hr
in
rain mn
in
humidity
%
barometer
mb
20260504010017 53 124 0.0 0.0 0.00 0.00 0.00 49 1008.3
20260504004519 53 124 0.0 0.0 0.00 0.00 0.00 47 1008.3
20260504003026 54 124 0.0 0.0 0.00 0.00 0.00 46 1008.2
20260504001525 55 124 0.0 0.0 0.00 0.00 0.00 44 1008.3
20260504000020 56 124 0.0 0.9 0.00 0.00 0.00 43 1008.3
20260503234527 56 123 0.0 1.7 0.00 0.00 0.00 43 1008.4
20260503233012 56 124 0.0 0.9 0.00 0.00 0.00 42 1008.4
20260503231529 56 123 0.0 0.0 0.00 0.00 0.00 43 1008.5
20260503230039 57 123 0.0 5.2 0.00 0.00 0.00 42 1008.5
20260503224522 57 123 0.0 0.0 0.00 0.00 0.00 42 1008.5
20260503223018 57 123 0.0 6.1 0.00 0.00 0.00 41 1008.7
20260503221523 57 124 0.0 6.1 0.00 0.00 0.00 40 1008.7
20260503220029 57 124 0.0 7.8 0.00 0.00 0.00 41 1008.8
20260503214511 58 123 0.0 0.9 0.00 0.00 0.00 40 1008.9
20260503213026 58 123 0.0 7.0 0.00 0.00 0.00 39 1008.8
20260503211521 59 123 0.0 3.5 0.00 0.00 0.00 40 1008.7
20260503210018 58 124 0.0 6.1 0.00 0.00 0.00 41 1008.8
20260503204515 58 123 0.0 6.1 0.00 0.00 0.00 43 1008.8
20260503203020 58 123 0.0 8.7 0.00 0.00 0.00 41 1009.0
20260503201532 58 123 0.0 2.6 0.00 0.00 0.00 43 1009.0
20260503200024 58 124 0.0 7.8 0.00 0.00 0.00 40 1009.3
20260503194523 58 123 0.0 2.6 0.00 0.00 0.00 38 1009.7
20260503193018 58 123 0.0 2.6 0.00 0.00 0.00 38 1009.9
20260503191519 57 123 0.0 1.7 0.00 0.00 0.00 39 1010.0
20260503190016 58 124 0.0 14.8 0.00 0.00 0.00 42 1010.2
20260503184527 58 123 0.0 6.1 0.00 0.00 0.00 40 1010.5
20260503183034 57 123 0.0 4.3 0.00 0.00 0.00 42 1010.7
20260503181522 57 124 0.0 5.2 0.00 0.00 0.00 42 1010.8
20260503180019 57 123 0.0 7.0 0.00 0.00 0.00 43 1010.9
20260503174513 56 122 0.0 9.6 0.00 0.00 0.00 44 1011.3
20260503173029 56 124 0.0 7.0 0.00 0.00 0.00 45 1011.4
20260503171523 56 123 0.0 6.1 0.00 0.00 0.00 44 1011.6
20260503081532 34 123 0.0 0.0 0.00 0.07 0.00 88 1012.6
20260503071529 34 124 0.0 0.0 0.00 0.07 0.00 88 1012.5
20260503054522 36 124 0.0 0.0 0.00 0.13 0.00 82 1012.8
20260503053021 37 124 0.0 0.0 0.00 0.13 0.00 80 1012.9
20260503051513 38 124 0.0 0.0 0.00 0.13 0.00 79 1012.9
20260503050035 38 124 0.0 0.0 0.00 0.13 0.00 79 1012.9
20260503044526 38 123 0.0 0.0 0.00 0.13 0.00 80 1013.0
20260503043020 38 123 0.0 0.0 0.00 0.13 0.00 80 1013.0
20260503041514 38 123 0.0 0.0 0.00 0.13 0.00 80 1013.1
20260503040012 38 123 0.0 0.0 0.00 0.13 0.00 81 1013.2
20260503034535 38 123 0.0 0.0 0.00 0.13 0.13 80 1013.2
20260503033029 38 123 0.0 0.0 0.00 0.13 0.13 80 1013.2
20260503031521 38 124 0.0 0.0 0.00 0.13 0.13 80 1013.3
20260503030020 38 124 0.0 0.0 0.00 0.13 0.13 81 1013.4
20260503024516 38 124 0.0 0.0 0.00 0.13 0.13 81 1013.5
20260503023010 37 123 0.0 0.0 0.00 0.13 0.13 79 1013.6
20260503021523 37 123 0.0 0.0 0.00 0.13 0.13 77 1013.5
20260503020023 37 124 0.0 0.0 0.00 0.13 0.13 76 1013.5
20260503014528 37 123 0.0 0.0 0.00 0.13 0.13 76 1013.5
20260503013024 37 124 0.0 0.0 0.00 0.13 0.13 74 1013.6
20260503011512 37 124 0.0 0.0 0.00 0.13 0.13 72 1013.5